Location: Chiroubles
(46.1812°N, 4.6660°E)
Time: 17:44:39
(UTC+00:00)

Cosmos 44 Rocket - Pass Details

Date: 15 August 2020
Orbit: 647 x 743 km, 65.1° (Epoch: 23 September)

Event Time Altitude Azimuth Distance (km) Brightness Sun altitude
Rises 22:36:34 0° 322° (NW) 3,100 7.7 -28.2°
Reaches altitude 10° 22:38:55 10° 320° (NW) 2,193 6.7 -28.3°
Enters shadow 22:42:56 54° 293° (WNW) 872 3.9 -28.5°
